• In Portugal
  • List of Countries
  • For 7 days
  • Water Temperature
  • Satellite Maps
  • Weather Map
  • Weather Widgets
  • user-avatar
    Login

    Hourly Weather Niğde

    Today, 23 October, Monday

    Time Temperature Precipitation Wind Pressure Humidity
    00:00 +9°C° 0 mm 0 mps 649 mmHg 30%
    01:00 +8°C° 0 mm 0 mps 649 mmHg 30%
    02:00 +8°C° 0 mm 0 mps 649 mmHg 31%
    03:00 +8°C° 0 mm 0 mps 649 mmHg 31%
    04:00 +7°C° 0 mm 0 mps 648 mmHg 32%
    05:00 +8°C° 0 mm 1 mps 648 mmHg 33%
    06:00 +10°C° 0 mm 1 mps 649 mmHg 29%
    07:00 +13°C° 0 mm 1 mps 650 mmHg 26%
    08:00 +15°C° 0 mm 1 mps 651 mmHg 23%
    09:00 +18°C° 0 mm 1 mps 651 mmHg 22%
    10:00 +18°C° 0 mm 2 mps 651 mmHg 21%
    11:00 +20°C° 0 mm 2 mps 652 mmHg 21%
    12:00 +20°C° 0 mm 2 mps 651 mmHg 20%
    13:00 +21°C° 0 mm 2 mps 651 mmHg 20%
    14:00 +21°C° 0 mm 3 mps 651 mmHg 20%
    15:00 +19°C° 0 mm 3 mps 650 mmHg 25%
    16:00 +18°C° 0 mm 3 mps 650 mmHg 30%
    17:00 +16°C° 0 mm 3 mps 649 mmHg 35%
    18:00 +14°C° 0 mm 3 mps 649 mmHg 41%
    19:00 +13°C° 0 mm 3 mps 649 mmHg 47%
    20:00 +12°C° 0 mm 3 mps 649 mmHg 53%
    21:00 +12°C° 0 mm 3 mps 649 mmHg 55%
    22:00 +11°C° 0 mm 3 mps 649 mmHg 57%
    23:00 +11°C° 0 mm 3 mps 649 mmHg 59%

    Tomorrow, 24 October, Tuesday

    Time Temperature Precipitation Wind Pressure Humidity
    00:00 +10°C° 0 mm 3 mps 649 mmHg 59%
    01:00 +10°C° 0 mm 3 mps 648 mmHg 60%
    02:00 +10°C° 0 mm 3 mps 648 mmHg 61%
    03:00 +10°C° 0 mm 3 mps 648 mmHg 61%
    04:00 +9°C° 0 mm 3 mps 648 mmHg 62%
    05:00 +9°C° 0 mm 3 mps 648 mmHg 62%
    06:00 +11°C° 0 mm 3 mps 649 mmHg 58%
    07:00 +12°C° 0 mm 3 mps 649 mmHg 54%
    08:00 +14°C° 0 mm 4 mps 650 mmHg 49%
    09:00 +17°C° 0 mm 4 mps 650 mmHg 43%
    10:00 +17°C° 0 mm 5 mps 651 mmHg 37%
    11:00 +20°C° 0 mm 5 mps 651 mmHg 31%
    12:00 +20°C° 0 mm 6 mps 651 mmHg 29%
    13:00 +21°C° 0 mm 6 mps 650 mmHg 28%
    14:00 +21°C° 0 mm 6 mps 650 mmHg 26%
    15:00 +19°C° 0 mm 5 mps 650 mmHg 30%
    16:00 +18°C° 0 mm 4 mps 649 mmHg 35%
    17:00 +15°C° 0 mm 4 mps 649 mmHg 39%
    18:00 +14°C° 0 mm 3 mps 649 mmHg 42%
    19:00 +13°C° 0 mm 3 mps 649 mmHg 45%
    20:00 +12°C° 0 mm 3 mps 650 mmHg 48%
    21:00 +12°C° 0 mm 3 mps 650 mmHg 48%
    22:00 +11°C° 0 mm 3 mps 650 mmHg 49%
    23:00 +11°C° 0 mm 3 mps 650 mmHg 49%

    Day after tomorrow, 25 October, Wednesday

    Time Temperature Precipitation Wind Pressure Humidity
    00:00 +10°C° 0 mm 3 mps 650 mmHg 50%
    01:00 +10°C° 0 mm 3 mps 650 mmHg 52%
    02:00 +10°C° 0 mm 3 mps 650 mmHg 53%
    03:00 +9°C° 0 mm 2 mps 650 mmHg 54%
    04:00 +9°C° 0 mm 2 mps 650 mmHg 54%
    05:00 +9°C° 0 mm 2 mps 650 mmHg 55%
    06:00 +10°C° 0 mm 2 mps 651 mmHg 51%
    07:00 +13°C° 0 mm 2 mps 651 mmHg 46%
    08:00 +13°C° 0 mm 3 mps 652 mmHg 42%
    09:00 +16°C° 0 mm 3 mps 652 mmHg 38%
    10:00 +17°C° 0 mm 3 mps 653 mmHg 34%
    11:00 +19°C° 0 mm 4 mps 653 mmHg 30%
    12:00 +19°C° 0.1 mm 4 mps 653 mmHg 32%
    13:00 +19°C° 0.1 mm 4 mps 653 mmHg 34%
    14:00 +19°C° 0.1 mm 4 mps 653 mmHg 36%
    15:00 +18°C° 0.1 mm 4 mps 652 mmHg 42%
    16:00 +16°C° 0.1 mm 3 mps 652 mmHg 47%
    17:00 +15°C° 0.1 mm 2 mps 652 mmHg 52%
    18:00 +14°C° 0 mm 2 mps 652 mmHg 56%
    19:00 +13°C° 0 mm 2 mps 652 mmHg 60%
    20:00 +13°C° 0 mm 2 mps 652 mmHg 64%
    21:00 +12°C° 0 mm 2 mps 652 mmHg 66%
    22:00 +12°C° 0 mm 2 mps 652 mmHg 68%
    23:00 +12°C° 0 mm 2 mps 653 mmHg 70%

    26 October, Thursday

    Time Temperature Precipitation Wind Pressure Humidity
    00:00 +10°C° 0 mm 2 mps 652 mmHg 72%
    01:00 +10°C° 0 mm 2 mps 652 mmHg 75%
    02:00 +10°C° 0 mm 1 mps 652 mmHg 78%
    03:00 +10°C° 0 mm 1 mps 652 mmHg 80%
    04:00 +9°C° 0 mm 1 mps 652 mmHg 82%
    05:00 +8°C° 0 mm 1 mps 652 mmHg 84%
    06:00 +10°C° 0 mm 1 mps 652 mmHg 78%
    07:00 +11°C° 0 mm 1 mps 653 mmHg 72%
    08:00 +12°C° 0 mm 1 mps 654 mmHg 67%
    09:00 +13°C° 0 mm 1 mps 654 mmHg 60%
    10:00 +14°C° 0 mm 2 mps 654 mmHg 53%
    11:00 +15°C° 0 mm 2 mps 655 mmHg 47%
    12:00 +15°C° 0 mm 2 mps 654 mmHg 45%
    13:00 +16°C° 0 mm 2 mps 654 mmHg 43%
    14:00 +16°C° 0 mm 2 mps 654 mmHg 42%
    15:00 +15°C° 0 mm 2 mps 654 mmHg 46%
    16:00 +14°C° 0 mm 2 mps 654 mmHg 51%
    17:00 +13°C° 0 mm 2 mps 653 mmHg 55%
    18:00 +12°C° 0 mm 2 mps 654 mmHg 60%
    19:00 +10°C° 0 mm 2 mps 654 mmHg 64%
    20:00 +10°C° 0 mm 1 mps 654 mmHg 68%
    21:00 +10°C° 0 mm 1 mps 654 mmHg 72%
    22:00 +9°C° 0 mm 1 mps 654 mmHg 76%
    23:00 +9°C° 0 mm 1 mps 654 mmHg 80%

    27 October, Friday

    Time Temperature Precipitation Wind Pressure Humidity
    00:00 +8°C° 0 mm 1 mps 653 mmHg 82%
    01:00 +8°C° 0 mm 1 mps 653 mmHg 83%
    02:00 +7°C° 0 mm 1 mps 653 mmHg 85%
    03:00 +7°C° 0 mm 1 mps 653 mmHg 86%
    04:00 +7°C° 0 mm 1 mps 652 mmHg 86%
    05:00 +6°C° 0 mm 1 mps 652 mmHg 86%
    06:00 +8°C° 0 mm 1 mps 653 mmHg 79%
    07:00 +10°C° 0 mm 1 mps 653 mmHg 71%
    08:00 +11°C° 0 mm 1 mps 654 mmHg 64%
    09:00 +13°C° 0 mm 1 mps 654 mmHg 56%
    10:00 +14°C° 0 mm 1 mps 654 mmHg 48%
    11:00 +15°C° 0 mm 0 mps 654 mmHg 41%
    12:00 +16°C° 0 mm 1 mps 654 mmHg 37%
    13:00 +18°C° 0 mm 1 mps 653 mmHg 34%
    14:00 +19°C° 0 mm 1 mps 653 mmHg 31%
    15:00 +16°C° 0 mm 1 mps 652 mmHg 35%
    16:00 +15°C° 0 mm 1 mps 652 mmHg 39%
    17:00 +13°C° 0 mm 1 mps 651 mmHg 43%
    18:00 +12°C° 0 mm 1 mps 651 mmHg 47%
    19:00 +11°C° 0 mm 1 mps 650 mmHg 50%
    20:00 +9°C° 0 mm 0 mps 650 mmHg 54%
    21:00 +10°C° 0 mm 1 mps 650 mmHg 55%
    22:00 +10°C° 0 mm 1 mps 650 mmHg 55%
    23:00 +9°C° 0 mm 1 mps 649 mmHg 56%

    28 October, Saturday

    Time Temperature Precipitation Wind Pressure Humidity
    00:00 +9°C° 0 mm 1 mps 649 mmHg 56%
    01:00 +9°C° 0 mm 1 mps 649 mmHg 56%
    02:00 +9°C° 0 mm 1 mps 648 mmHg 56%
    03:00 +8°C° 0 mm 1 mps 648 mmHg 55%
    04:00 +8°C° 0 mm 1 mps 648 mmHg 54%
    05:00 +7°C° 0 mm 2 mps 648 mmHg 53%
    06:00 +9°C° 0 mm 2 mps 648 mmHg 47%
    07:00 +12°C° 0 mm 2 mps 649 mmHg 40%
    08:00 +14°C° 0 mm 2 mps 650 mmHg 33%
    09:00 +15°C° 0 mm 2 mps 650 mmHg 29%
    10:00 +17°C° 0 mm 3 mps 650 mmHg 26%
    11:00 +18°C° 0 mm 3 mps 650 mmHg 22%
    12:00 +18°C° 0 mm 4 mps 650 mmHg 23%
    13:00 +19°C° 0 mm 4 mps 650 mmHg 23%
    14:00 +19°C° 0 mm 4 mps 649 mmHg 24%
    15:00 +17°C° 0.1 mm 4 mps 649 mmHg 28%
    16:00 +16°C° 0.1 mm 3 mps 648 mmHg 33%
    17:00 +14°C° 0.1 mm 2 mps 648 mmHg 37%
    18:00 +14°C° 0 mm 2 mps 648 mmHg 41%
    19:00 +13°C° 0 mm 2 mps 648 mmHg 45%
    20:00 +12°C° 0 mm 2 mps 648 mmHg 49%
    21:00 +12°C° 0 mm 2 mps 648 mmHg 50%
    22:00 +12°C° 0 mm 2 mps 647 mmHg 52%
    23:00 +10°C° 0 mm 2 mps 647 mmHg 53%

    29 October, Sunday

    Time Temperature Precipitation Wind Pressure Humidity
    00:00 +10°C° 0 mm 2 mps 647 mmHg 55%
    01:00 +9°C° 0 mm 2 mps 647 mmHg 56%
    02:00 +9°C° 0 mm 2 mps 646 mmHg 58%
    03:00 +9°C° 0 mm 2 mps 646 mmHg 59%
    04:00 +9°C° 0 mm 2 mps 646 mmHg 60%
    05:00 +8°C° 0 mm 2 mps 646 mmHg 61%
    06:00 +10°C° 0 mm 2 mps 646 mmHg 56%
    07:00 +11°C° 0 mm 3 mps 647 mmHg 51%
    08:00 +13°C° 0 mm 3 mps 647 mmHg 46%
    09:00 +14°C° 0 mm 4 mps 648 mmHg 42%
    10:00 +15°C° 0 mm 5 mps 648 mmHg 38%
    11:00 +17°C° 0 mm 6 mps 648 mmHg 34%
    12:00 +17°C° 0 mm 6 mps 647 mmHg 34%
    13:00 +17°C° 0 mm 6 mps 647 mmHg 34%
    14:00 +17°C° 0 mm 6 mps 647 mmHg 34%
    15:00 +15°C° 0.1 mm 5 mps 646 mmHg 41%
    16:00 +14°C° 0.1 mm 4 mps 646 mmHg 47%
    17:00 +13°C° 0.1 mm 3 mps 645 mmHg 54%
    18:00 +13°C° 0.1 mm 4 mps 645 mmHg 59%
    19:00 +12°C° 0.1 mm 4 mps 645 mmHg 64%
    20:00 +12°C° 0.1 mm 4 mps 645 mmHg 69%
    21:00 +11°C° 0.2 mm 4 mps 645 mmHg 70%
    22:00 +10°C° 0.2 mm 5 mps 645 mmHg 72%
    23:00 +10°C° 0.2 mm 5 mps 645 mmHg 73%
    Show more